This is the latest recevied weather packets stored in our database for station/object LU3HGB-WX. If no packets are shown the sender has not sent any weather packets the latest 10 day(s).
| Time | Temp. | Humidity | Pressure | Rain* | Wind** | Luminosity | Snow |
|---|---|---|---|---|---|---|---|
| 1788606459 | 3.33° C | 69% | 1023 hPa | 0 mm | - | 51 W/m² | - |
| 1788606160 | 3.33° C | 71% | 1023 hPa | 0 mm | - | 43 W/m² | - |
| 1788605859 | 3.33° C | 72% | 1023 hPa | 0 mm | - | 35 W/m² | - |
| 1788605559 | 3.33° C | 71% | 1023 hPa | 0 mm | - | 26 W/m² | - |
| 1788605260 | 3.33° C | 70% | 1023 hPa | 0 mm | - | 8 W/m² | - |
| 1788604959 | 3.33° C | 71% | 1023 hPa | 0 mm | - | 13 W/m² | - |
| 1788604659 | 3.89° C | 71% | 1023 hPa | 0 mm | - | 8 W/m² | - |
| 1788604382 | 4.44° C | 69% | 1022 hPa | 0 mm | - | 4 W/m² | - |
| 1788604059 | 4.44° C | 68% | 1022 hPa | 0 mm | - | 2 W/m² | - |
| 1788603760 | 4.44° C | 67% | 1022 hPa | 0 mm | - | 1 W/m² | - |
| 1788603459 | 5° C | 68% | 1022 hPa | 0 mm | - | 0 W/m² | - |
| 1788603160 | 5.56° C | 64% | 1022 hPa | 0 mm | - | 0 W/m² | - |
| 1788602859 | 5° C | 50% | 1022 hPa | 0 mm | - | 0 W/m² | - |
| 1788602559 | 3.33° C | 69% | 1022 hPa | 0 mm | - | 0 W/m² | - |
| 1788602259 | 3.33° C | 74% | 1022 hPa | 0 mm | - | 0 W/m² | - |
| 1788601959 | 3.33° C | 75% | 1022 hPa | 0 mm | - | 0 W/m² | - |
| 1788601659 | 3.33° C | 75% | 1022 hPa | 0 mm | - | 0 W/m² | - |
| 1788601361 | 3.89° C | 76% | 1022 hPa | 0 mm | - | 0 W/m² | - |
| 1788601060 | 3.89° C | 75% | 1022 hPa | 0 mm | - | 0 W/m² | - |
| 1788600759 | 3.89° C | 72% | 1022 hPa | 0 mm | - | 0 W/m² | - |
| 1788600459 | 3.89° C | 72% | 1022 hPa | 0 mm | - | 0 W/m² | - |
| 1788600160 | 3.89° C | 74% | 1022 hPa | 0 mm | - | 0 W/m² | - |
| 1788599861 | 3.89° C | 71% | 1022 hPa | 0 mm | - | 0 W/m² | - |
| 1788599560 | 3.89° C | 72% | 1022 hPa | 0 mm | - | 0 W/m² | - |
| 1788599259 | 3.89° C | 75% | 1022 hPa | 0 mm | - | 0 W/m² | - |
* Rain latest hour (hover to see other rain measurements)
** Current wind speed in m/s (hover to see current wind gust speed)